TimeMDT,TemperatureF,Dew PointF,Humidity,Sea Level PressureIn,VisibilityMPH,Wind Direction,Wind SpeedMPH,Gust SpeedMPH,PrecipitationIn,Events,Conditions,WindDirDegrees,DateUTC
12:53 AM,71.1,53.1,53,29.97,10.0,Calm,Calm,-,N/A,,Clear,0,2013-07-19 06:53:00
1:53 AM,68.0,53.1,59,29.98,10.0,NW,8.1,-,N/A,,Clear,310,2013-07-19 07:53:00
2:53 AM,64.9,51.1,61,29.98,10.0,WNW,5.8,-,N/A,,Clear,300,2013-07-19 08:53:00
3:53 AM,63.0,50.0,63,29.98,10.0,Calm,Calm,-,N/A,,Clear,0,2013-07-19 09:53:00
4:53 AM,62.1,48.9,62,29.97,10.0,West,3.5,-,N/A,,Clear,270,2013-07-19 10:53:00
5:53 AM,61.0,48.9,64,29.97,10.0,West,3.5,-,N/A,,Clear,270,2013-07-19 11:53:00
6:53 AM,63.0,50.0,63,29.99,10.0,West,3.5,-,N/A,,Clear,270,2013-07-19 12:53:00
7:53 AM,69.1,52.0,54,29.99,10.0,Calm,Calm,-,N/A,,Clear,0,2013-07-19 13:53:00
8:53 AM,73.9,51.1,45,30.00,10.0,Calm,Calm,-,N/A,,Clear,0,2013-07-19 14:53:00
9:53 AM,75.9,51.1,42,30.00,10.0,South,3.5,-,N/A,,Clear,170,2013-07-19 15:53:00
10:53 AM,78.1,51.1,39,29.98,10.0,Variable,4.6,-,N/A,,Clear,0,2013-07-19 16:53:00
11:53 AM,82.0,52.0,35,29.95,10.0,SSW,3.5,-,N/A,,Clear,200,2013-07-19 17:53:00
12:53 PM,86.0,46.9,26,29.92,10.0,South,5.8,-,N/A,,Clear,190,2013-07-19 18:53:00
1:53 PM,89.1,46.0,22,29.89,10.0,Calm,Calm,-,N/A,,Clear,0,2013-07-19 19:53:00
2:53 PM,91.9,39.0,16,29.86,10.0,South,6.9,-,N/A,,Clear,170,2013-07-19 20:53:00
3:53 PM,93.0,37.9,15,29.83,10.0,SSW,4.6,-,N/A,,Clear,210,2013-07-19 21:53:00
4:53 PM,93.9,34.0,12,29.80,10.0,Calm,Calm,-,N/A,,Clear,0,2013-07-19 22:53:00
5:53 PM,93.0,36.0,13,29.79,10.0,South,4.6,-,N/A,,Clear,190,2013-07-19 23:53:00
6:53 PM,91.0,39.0,16,29.77,10.0,South,3.5,-,N/A,,Clear,190,2013-07-20 00:53:00
7:53 PM,89.1,37.9,16,29.78,10.0,North,6.9,-,N/A,,Clear,360,2013-07-20 01:53:00
8:53 PM,80.1,44.1,28,29.79,10.0,West,5.8,-,N/A,,Clear,270,2013-07-20 02:53:00
9:53 PM,75.9,34.0,22,29.82,10.0,West,8.1,-,N/A,,Clear,280,2013-07-20 03:53:00
10:53 PM,78.1,27.0,15,29.81,10.0,NW,8.1,-,N/A,,Clear,320,2013-07-20 04:53:00
11:53 PM,80.1,23.0,12,29.81,10.0,NNW,10.4,-,N/A,,Clear,330,2013-07-20 05:53:00